Location: ????
(30.2663°N, 31.2484°E)
Time: 12:46:48
(UTC+00:00)

Cosmos 1470 Rocket - Pass Details

Date: 27 September 2022
Orbit: 604 x 632 km, 82.5° (Epoch: 27 November)

Event Time Altitude Azimuth Distance (km) Brightness Sun altitude
Rises 03:06:44 0° 345° (NNW) 2,863 6.9 -9.3°
Reaches altitude 10° 03:09:01 10° 338° (NNW) 1,959 5.9 -8.8°
Maximum altitude 03:13:06 42° 268° (W) 875 3.9 -7.9°
Drops below altitude 10° 03:17:12 10° 197° (SSW) 1,961 5.9 -7.1°
Sets 03:19:30 0° 190° (S) 2,866 6.8 -6.6°
